| time (UTC) | temp F | wind direction | speed MPH | gust MPH | rain 1hr in | rain 24hr in | rain mn in | humidity % | barometer mb |
| 20260505152951 | 78 | 198 | 5.0 | 8.0 | 0.00 | 0.00 | 0.00 | 87 | 1013.4 |
| 20260505152449 | 77 | 155 | 1.0 | 1.0 | 0.00 | 0.00 | 0.00 | 88 | 1013.5 |
| 20260505151944 | 77 | 173 | 3.0 | 3.0 | 0.00 | 0.00 | 0.00 | 88 | 1013.3 |
| 20260505151439 | 77 | 171 | 2.0 | 5.0 | 0.00 | 0.00 | 0.00 | 88 | 1013.4 |
| 20260505150937 | 77 | 210 | 2.0 | 2.0 | 0.00 | 0.00 | 0.00 | 88 | 1013.3 |
| 20260505150428 | 77 | 305 | 7.0 | 10.0 | 0.00 | 0.00 | 0.00 | 87 | 1013.2 |
| 20260505140352 | 75 | 195 | 1.0 | 2.0 | 0.00 | 0.00 | 0.00 | 92 | 1013.0 |
| 20260505124806 | 72 | 177 | 0.0 | 0.0 | 0.00 | 0.00 | 0.00 | 95 | 1012.8 |
| 20260505124303 | 71 | 142 | 2.0 | 2.0 | 0.00 | 0.00 | 0.00 | 96 | 1012.8 |
| 20260505123759 | 71 | 176 | 2.0 | 2.0 | 0.00 | 0.00 | 0.00 | 96 | 1012.6 |
| 20260505123255 | 71 | 187 | 2.0 | 2.0 | 0.00 | 0.00 | 0.00 | 96 | 1012.5 |
| 20260505122752 | 71 | 155 | 1.0 | 1.0 | 0.00 | 0.00 | 0.00 | 96 | 1012.6 |
| 20260505122249 | 71 | 177 | 1.0 | 1.0 | 0.00 | 0.00 | 0.00 | 96 | 1012.5 |
| 20260505121746 | 71 | 203 | 3.0 | 5.0 | 0.00 | 0.00 | 0.00 | 96 | 1012.8 |
| 20260505121242 | 70 | 151 | 0.0 | 1.0 | 0.00 | 0.00 | 0.00 | 97 | 1012.7 |
| 20260505120739 | 70 | 124 | 2.0 | 2.0 | 0.00 | 0.00 | 0.00 | 97 | 1012.7 |
| 20260505120235 | 70 | 184 | 4.0 | 6.0 | 0.00 | 0.00 | 0.00 | 97 | 1012.7 |
| 20260505115734 | 70 | 176 | 1.0 | 2.0 | 0.00 | 0.00 | 0.00 | 97 | 1012.5 |
| 20260505115232 | 70 | 163 | 1.0 | 1.0 | 0.00 | 0.00 | 0.00 | 97 | 1012.7 |
| 20260505114729 | 70 | 188 | 0.0 | 0.0 | 0.00 | 0.00 | 0.00 | 97 | 1012.5 |
| 20260505114224 | 70 | 348 | 2.0 | 3.0 | 0.00 | 0.00 | 0.00 | 97 | 1012.7 |
| 20260505113721 | 70 | 178 | 3.0 | 5.0 | 0.00 | 0.00 | 0.00 | 97 | 1012.5 |
| 20260505113217 | 70 | 191 | 2.0 | 2.0 | 0.00 | 0.00 | 0.00 | 97 | 1012.5 |
| 20260505112713 | 69 | 166 | 5.0 | 7.0 | 0.00 | 0.00 | 0.00 | 97 | 1012.4 |
| 20260505112211 | 69 | 176 | 3.0 | 3.0 | 0.00 | 0.00 | 0.00 | 97 | 1012.2 |
| 20260505111706 | 69 | 170 | 2.0 | 2.0 | 0.00 | 0.00 | 0.00 | 97 | 1012.1 |
| 20260505111202 | 69 | 160 | 3.0 | 3.0 | 0.00 | 0.00 | 0.00 | 97 | 1012.4 |
| 20260505110658 | 69 | 186 | 1.0 | 2.0 | 0.00 | 0.00 | 0.00 | 97 | 1012.2 |
| 20260505110156 | 69 | 144 | 4.0 | 5.0 | 0.00 | 0.00 | 0.00 | 97 | 1012.4 |
| 20260505102131 | 68 | 160 | 1.0 | 1.0 | 0.00 | 0.00 | 0.00 | 97 | 1012.4 |
| 20260505101630 | 68 | 178 | 0.0 | 0.0 | 0.00 | 0.00 | 0.00 | 97 | 1012.5 |
| 20260505101126 | 68 | 164 | 0.0 | 1.0 | 0.00 | 0.00 | 0.00 | 97 | 1012.5 |
| 20260505100622 | 68 | 192 | 1.0 | 1.0 | 0.00 | 0.00 | 0.00 | 97 | 1012.6 |
| 20260505100119 | 68 | 174 | 0.0 | 1.0 | 0.00 | 0.00 | 0.00 | 97 | 1012.4 |
| 20260505095615 | 68 | 175 | 0.0 | 1.0 | 0.00 | 0.00 | 0.00 | 97 | 1012.4 |
| 20260505095112 | 68 | 196 | 1.0 | 2.0 | 0.00 | 0.00 | 0.00 | 96 | 1012.6 |
| 20260505094608 | 68 | 192 | 1.0 | 2.0 | 0.00 | 0.00 | 0.00 | 96 | 1012.5 |
| 20260505094105 | 68 | 161 | 1.0 | 1.0 | 0.00 | 0.00 | 0.00 | 96 | 1012.7 |
| 20260505093601 | 68 | 151 | 2.0 | 2.0 | 0.00 | 0.00 | 0.00 | 96 | 1012.6 |
| 20260505093059 | 68 | 193 | 1.0 | 2.0 | 0.00 | 0.00 | 0.00 | 96 | 1012.9 |
| 20260505092556 | 68 | 146 | 1.0 | 2.0 | 0.00 | 0.00 | 0.00 | 96 | 1012.9 |
| 20260505092055 | 68 | 142 | 3.0 | 3.0 | 0.00 | 0.00 | 0.00 | 96 | 1012.9 |
| 20260505091550 | 68 | 171 | 0.0 | 0.0 | 0.00 | 0.00 | 0.00 | 96 | 1013.2 |
| 20260505091049 | 68 | 181 | 0.0 | 1.0 | 0.00 | 0.00 | 0.00 | 96 | 1012.9 |
| 20260505090547 | 68 | 169 | 0.0 | 1.0 | 0.00 | 0.00 | 0.00 | 96 | 1013.2 |
| 20260505090044 | 68 | 179 | 0.0 | 0.0 | 0.00 | 0.00 | 0.00 | 96 | 1013.2 |
| 20260505085542 | 68 | 163 | 1.0 | 1.0 | 0.00 | 0.00 | 0.00 | 96 | 1013.0 |
| 20260505085040 | 68 | 172 | 0.0 | 1.0 | 0.00 | 0.00 | 0.00 | 95 | 1013.0 |
| 20260505084538 | 68 | 138 | 1.0 | 1.0 | 0.00 | 0.00 | 0.00 | 95 | 1013.0 |
| 20260505084036 | 68 | 170 | 3.0 | 5.0 | 0.00 | 0.00 | 0.00 | 95 | 1013.1 |
| 20260505083532 | 68 | 123 | 2.0 | 2.0 | 0.00 | 0.00 | 0.00 | 95 | 1013.3 |
| 20260505083029 | 68 | 188 | 1.0 | 2.0 | 0.00 | 0.00 | 0.00 | 95 | 1013.2 |
| 20260505082525 | 68 | 155 | 1.0 | 2.0 | 0.00 | 0.00 | 0.00 | 95 | 1013.3 |
| 20260505082022 | 68 | 169 | 0.0 | 0.0 | 0.00 | 0.00 | 0.00 | 95 | 1013.4 |
| 20260505081518 | 68 | 174 | 1.0 | 1.0 | 0.00 | 0.00 | 0.00 | 95 | 1013.4 |
| 20260505081015 | 68 | 160 | 0.0 | 1.0 | 0.00 | 0.00 | 0.00 | 94 | 1013.3 |
| 20260505080512 | 68 | 184 | 0.0 | 0.0 | 0.00 | 0.00 | 0.00 | 94 | 1013.3 |
| 20260505080008 | 68 | 172 | 0.0 | 0.0 | 0.00 | 0.00 | 0.00 | 94 | 1013.2 |
| 20260505075504 | 68 | 178 | 1.0 | 1.0 | 0.00 | 0.00 | 0.00 | 94 | 1013.3 |
| 20260505075001 | 68 | 153 | 1.0 | 1.0 | 0.00 | 0.00 | 0.00 | 94 | 1013.2 |
| 20260505074459 | 68 | 210 | 2.0 | 3.0 | 0.00 | 0.00 | 0.00 | 94 | 1013.3 |
| 20260505073956 | 68 | 215 | 3.0 | 3.0 | 0.00 | 0.00 | 0.00 | 94 | 1013.3 |
| 20260505073453 | 68 | 181 | 1.0 | 2.0 | 0.00 | 0.00 | 0.00 | 93 | 1013.2 |
| 20260505072950 | 68 | 182 | 1.0 | 1.0 | 0.00 | 0.00 | 0.00 | 93 | 1013.4 |
| 20260505072446 | 68 | 193 | 0.0 | 1.0 | 0.00 | 0.00 | 0.00 | 93 | 1013.6 |
| 20260505071943 | 68 | 226 | 1.0 | 2.0 | 0.00 | 0.00 | 0.00 | 93 | 1013.8 |
| 20260505071438 | 68 | 193 | 1.0 | 1.0 | 0.00 | 0.00 | 0.00 | 93 | 1013.9 |
| 20260505070937 | 68 | 175 | 0.0 | 0.0 | 0.00 | 0.00 | 0.00 | 92 | 1013.7 |
| 20260505070433 | 68 | 153 | 2.0 | 2.0 | 0.00 | 0.00 | 0.00 | 92 | 1013.7 |
| 20260505065929 | 69 | 164 | 3.0 | 3.0 | 0.00 | 0.00 | 0.00 | 92 | 1013.8 |
| 20260505065426 | 69 | 196 | 3.0 | 5.0 | 0.00 | 0.00 | 0.00 | 92 | 1013.8 |
| 20260505064922 | 69 | 157 | 3.0 | 3.0 | 0.00 | 0.00 | 0.00 | 92 | 1014.0 |
| 20260505064420 | 69 | 144 | 1.0 | 5.0 | 0.00 | 0.00 | 0.00 | 92 | 1013.7 |
| 20260505063918 | 69 | 220 | 1.0 | 1.0 | 0.00 | 0.00 | 0.00 | 91 | 1014.1 |
| 20260505063414 | 69 | 170 | 2.0 | 2.0 | 0.00 | 0.00 | 0.00 | 91 | 1013.7 |
| 20260505062910 | 69 | 172 | 0.0 | 0.0 | 0.00 | 0.00 | 0.00 | 91 | 1014.2 |
| 20260505062408 | 69 | 189 | 1.0 | 1.0 | 0.00 | 0.00 | 0.00 | 91 | 1013.7 |
| 20260505061904 | 69 | 194 | 0.0 | 1.0 | 0.00 | 0.00 | 0.00 | 91 | 1014.2 |
| 20260505061403 | 69 | 179 | 0.0 | 0.0 | 0.00 | 0.00 | 0.00 | 90 | 1014.1 |
| 20260505060900 | 69 | 167 | 2.0 | 3.0 | 0.00 | 0.00 | 0.00 | 90 | 1014.1 |
| 20260505060356 | 69 | 169 | 3.0 | 3.0 | 0.00 | 0.00 | 0.00 | 90 | 1014.1 |
| 20260505055853 | 69 | 153 | 1.0 | 1.0 | 0.00 | 0.00 | 0.00 | 90 | 1014.2 |
| 20260505055349 | 69 | 186 | 0.0 | 0.0 | 0.00 | 0.00 | 0.00 | 89 | 1014.2 |
| 20260505054846 | 69 | 207 | 1.0 | 1.0 | 0.00 | 0.00 | 0.00 | 89 | 1014.1 |
| 20260505054343 | 69 | 168 | 1.0 | 1.0 | 0.00 | 0.00 | 0.00 | 89 | 1014.2 |
| 20260505053842 | 69 | 180 | 3.0 | 3.0 | 0.00 | 0.00 | 0.00 | 89 | 1014.3 |
| 20260505053338 | 70 | 174 | 0.0 | 1.0 | 0.00 | 0.00 | 0.00 | 88 | 1014.4 |
| 20260505052835 | 70 | 180 | 2.0 | 5.0 | 0.00 | 0.00 | 0.00 | 88 | 1014.2 |
| 20260505052332 | 70 | 181 | 1.0 | 1.0 | 0.00 | 0.00 | 0.00 | 88 | 1014.4 |
| 20260505051829 | 70 | 187 | 2.0 | 2.0 | 0.00 | 0.00 | 0.00 | 88 | 1014.4 |
| 20260505051326 | 70 | 156 | 1.0 | 2.0 | 0.00 | 0.00 | 0.00 | 88 | 1014.5 |
| 20260505050824 | 70 | 182 | 1.0 | 1.0 | 0.00 | 0.00 | 0.00 | 88 | 1014.5 |
| 20260505050323 | 70 | 160 | 1.0 | 1.0 | 0.00 | 0.00 | 0.00 | 88 | 1014.5 |
| 20260505041752 | 70 | 185 | 1.0 | 1.0 | 0.00 | 0.00 | 0.00 | 86 | 1014.3 |
| 20260505041249 | 70 | 170 | 3.0 | 3.0 | 0.00 | 0.00 | 0.00 | 86 | 1014.4 |
| 20260505040747 | 70 | 177 | 7.0 | 8.0 | 0.00 | 0.00 | 0.00 | 85 | 1014.4 |
| 20260505040244 | 70 | 180 | 1.0 | 1.0 | 0.00 | 0.00 | 0.00 | 85 | 1014.5 |
| 20260505035741 | 71 | 129 | 2.0 | 2.0 | 0.00 | 0.00 | 0.00 | 85 | 1014.7 |
| 20260505035237 | 71 | 199 | 3.0 | 3.0 | 0.00 | 0.00 | 0.00 | 85 | 1014.7 |
| 20260505034734 | 71 | 156 | 3.0 | 6.0 | 0.00 | 0.00 | 0.00 | 85 | 1014.6 |
| 20260505034231 | 71 | 136 | 5.0 | 6.0 | 0.00 | 0.00 | 0.00 | 85 | 1014.7 |
| 20260505033727 | 71 | 141 | 2.0 | 2.0 | 0.00 | 0.00 | 0.00 | 85 | 1014.7 |
| 20260505033225 | 70 | 170 | 1.0 | 2.0 | 0.00 | 0.00 | 0.00 | 85 | 1014.6 |
| 20260505032723 | 70 | 167 | 3.0 | 5.0 | 0.00 | 0.00 | 0.00 | 85 | 1014.9 |
| 20260505032219 | 70 | 191 | 0.0 | 0.0 | 0.00 | 0.00 | 0.00 | 86 | 1014.7 |
| 20260505031716 | 70 | 194 | 1.0 | 1.0 | 0.00 | 0.00 | 0.00 | 86 | 1015.0 |
| 20260505031212 | 70 | 171 | 1.0 | 1.0 | 0.00 | 0.00 | 0.00 | 86 | 1014.7 |
| 20260505030710 | 70 | 162 | 0.0 | 0.0 | 0.00 | 0.00 | 0.00 | 86 | 1014.8 |
| 20260505030205 | 70 | 188 | 2.0 | 3.0 | 0.00 | 0.00 | 0.00 | 85 | 1014.8 |
| 20260505025701 | 70 | 207 | 3.0 | 5.0 | 0.00 | 0.00 | 0.00 | 85 | 1014.6 |
| 20260505025200 | 70 | 90 | 4.0 | 8.0 | 0.00 | 0.00 | 0.00 | 85 | 1014.8 |
| 20260505024658 | 70 | 169 | 2.0 | 2.0 | 0.00 | 0.00 | 0.00 | 85 | 1014.7 |
| 20260505024154 | 70 | 168 | 4.0 | 6.0 | 0.00 | 0.00 | 0.00 | 84 | 1014.6 |
| 20260505023652 | 70 | 180 | 2.0 | 3.0 | 0.00 | 0.00 | 0.00 | 84 | 1014.6 |
| 20260505023149 | 70 | 145 | 4.0 | 5.0 | 0.00 | 0.00 | 0.00 | 84 | 1014.7 |
| 20260505022646 | 71 | 155 | 3.0 | 3.0 | 0.00 | 0.00 | 0.00 | 84 | 1014.7 |
| 20260505022143 | 71 | 179 | 3.0 | 5.0 | 0.00 | 0.00 | 0.00 | 84 | 1014.4 |
| 20260505021640 | 71 | 160 | 4.0 | 5.0 | 0.00 | 0.00 | 0.00 | 83 | 1014.4 |
| 20260505021137 | 71 | 158 | 5.0 | 6.0 | 0.00 | 0.00 | 0.00 | 83 | 1014.6 |
| 20260505020632 | 71 | 147 | 2.0 | 3.0 | 0.00 | 0.00 | 0.00 | 83 | 1014.5 |
| 20260505020128 | 71 | 150 | 3.0 | 3.0 | 0.00 | 0.00 | 0.00 | 82 | 1014.5 |
| 20260505015625 | 71 | 168 | 3.0 | 3.0 | 0.00 | 0.00 | 0.00 | 82 | 1014.2 |
| 20260505015122 | 72 | 169 | 3.0 | 3.0 | 0.00 | 0.00 | 0.00 | 81 | 1014.4 |
| 20260505014618 | 72 | 133 | 1.0 | 2.0 | 0.00 | 0.00 | 0.00 | 81 | 1014.2 |
| 20260505014115 | 72 | 139 | 4.0 | 6.0 | 0.00 | 0.00 | 0.00 | 80 | 1014.2 |
| 20260505013608 | 72 | 182 | 3.0 | 3.0 | 0.00 | 0.00 | 0.00 | 80 | 1014.2 |
| 20260505013105 | 72 | 137 | 5.0 | 7.0 | 0.00 | 0.00 | 0.00 | 80 | 1014.2 |
| 20260505012603 | 72 | 92 | 5.0 | 7.0 | 0.00 | 0.00 | 0.00 | 80 | 1014.1 |
| 20260505012059 | 72 | 157 | 5.0 | 8.0 | 0.00 | 0.00 | 0.00 | 79 | 1014.0 |
| 20260505011555 | 72 | 144 | 1.0 | 2.0 | 0.00 | 0.00 | 0.00 | 79 | 1014.1 |
| 20260505011053 | 72 | 137 | 3.0 | 3.0 | 0.00 | 0.00 | 0.00 | 79 | 1014.2 |
| 20260505010548 | 72 | 240 | 4.0 | 6.0 | 0.00 | 0.00 | 0.00 | 79 | 1014.2 |
| 20260505010045 | 73 | 172 | 1.0 | 1.0 | 0.00 | 0.00 | 0.00 | 79 | 1013.9 |
| 20260505005541 | 73 | 158 | 1.0 | 1.0 | 0.00 | 0.00 | 0.00 | 78 | 1014.1 |
| 20260505005038 | 73 | 157 | 4.0 | 6.0 | 0.00 | 0.00 | 0.00 | 78 | 1014.2 |
| 20260505004535 | 73 | 130 | 3.0 | 3.0 | 0.00 | 0.00 | 0.00 | 77 | 1014.3 |
| 20260505004032 | 73 | 196 | 4.0 | 5.0 | 0.00 | 0.00 | 0.00 | 77 | 1014.2 |
| 20260505003529 | 73 | 179 | 2.0 | 2.0 | 0.00 | 0.00 | 0.00 | 77 | 1014.4 |
| 20260505003026 | 73 | 188 | 2.0 | 3.0 | 0.00 | 0.00 | 0.00 | 77 | 1014.2 |
| 20260505002521 | 74 | 185 | 2.0 | 5.0 | 0.00 | 0.00 | 0.00 | 76 | 1014.4 |
| 20260505002020 | 74 | 133 | 5.0 | 8.0 | 0.00 | 0.00 | 0.00 | 75 | 1014.2 |
| 20260505001517 | 74 | 164 | 1.0 | 2.0 | 0.00 | 0.00 | 0.00 | 75 | 1014.3 |
| 20260505001014 | 75 | 177 | 5.0 | 8.0 | 0.00 | 0.00 | 0.00 | 75 | 1014.4 |
| 20260505000512 | 75 | 193 | 3.0 | 3.0 | 0.00 | 0.00 | 0.00 | 74 | 1014.2 |
| 20260505000009 | 75 | 165 | 1.0 | 1.0 | 0.00 | 0.00 | 0.00 | 74 | 1014.4 |
| 20260504235506 | 75 | 189 | 3.0 | 5.0 | 0.00 | 0.00 | 0.00 | 74 | 1014.1 |
| 20260504235002 | 75 | 159 | 1.0 | 1.0 | 0.00 | 0.00 | 0.00 | 74 | 1014.2 |
| 20260504234459 | 76 | 170 | 2.0 | 2.0 | 0.00 | 0.00 | 0.00 | 73 | 1014.1 |
| 20260504233956 | 76 | 123 | 5.0 | 6.0 | 0.00 | 0.00 | 0.00 | 72 | 1014.1 |
| 20260504233451 | 76 | 153 | 4.0 | 5.0 | 0.00 | 0.00 | 0.00 | 72 | 1014.2 |
| 20260504232949 | 76 | 134 | 4.0 | 6.0 | 0.00 | 0.00 | 0.00 | 71 | 1014.6 |
| 20260504232446 | 76 | 149 | 5.0 | 7.0 | 0.00 | 0.00 | 0.00 | 71 | 1014.4 |
| 20260504231943 | 77 | 85 | 3.0 | 7.0 | 0.00 | 0.00 | 0.00 | 72 | 1014.5 |
| 20260504231439 | 77 | 178 | 4.0 | 6.0 | 0.00 | 0.00 | 0.00 | 70 | 1014.9 |
| 20260504230935 | 77 | 188 | 7.0 | 9.0 | 0.00 | 0.00 | 0.00 | 70 | 1014.8 |
| 20260504230432 | 78 | 161 | 3.0 | 3.0 | 0.00 | 0.00 | 0.00 | 70 | 1014.7 |
| 20260504225932 | 78 | 201 | 2.0 | 2.0 | 0.00 | 0.00 | 0.00 | 70 | 1014.8 |
| 20260504225428 | 78 | 192 | 3.0 | 5.0 | 0.00 | 0.00 | 0.00 | 70 | 1014.6 |
| 20260504224925 | 78 | 157 | 4.0 | 7.0 | 0.00 | 0.00 | 0.00 | 69 | 1014.4 |
| 20260504224422 | 79 | 184 | 6.0 | 8.0 | 0.00 | 0.00 | 0.00 | 68 | 1014.8 |
| 20260504223919 | 79 | 113 | 3.0 | 5.0 | 0.00 | 0.00 | 0.00 | 67 | 1014.8 |
| 20260504223414 | 79 | 178 | 4.0 | 5.0 | 0.00 | 0.00 | 0.00 | 67 | 1014.9 |
| 20260504222911 | 80 | 168 | 3.0 | 5.0 | 0.00 | 0.00 | 0.00 | 66 | 1014.8 |
| 20260504222408 | 81 | 174 | 3.0 | 5.0 | 0.00 | 0.00 | 0.00 | 63 | 1014.9 |
| 20260504221906 | 81 | 149 | 1.0 | 2.0 | 0.00 | 0.00 | 0.00 | 63 | 1014.8 |
| 20260504221402 | 81 | 150 | 3.0 | 5.0 | 0.00 | 0.00 | 0.00 | 62 | 1014.6 |
| 20260504220859 | 81 | 167 | 1.0 | 2.0 | 0.00 | 0.00 | 0.00 | 62 | 1014.9 |
| 20260504220351 | 80 | 193 | 1.0 | 2.0 | 0.00 | 0.00 | 0.00 | 64 | 1015.1 |
| 20260504215848 | 80 | 170 | 3.0 | 3.0 | 0.00 | 0.00 | 0.00 | 65 | 1015.2 |
| 20260504215344 | 80 | 115 | 3.0 | 7.0 | 0.00 | 0.00 | 0.00 | 62 | 1015.1 |
| 20260504214841 | 80 | 172 | 3.0 | 5.0 | 0.00 | 0.00 | 0.00 | 59 | 1015.2 |
| 20260504214338 | 81 | 198 | 5.0 | 6.0 | 0.00 | 0.00 | 0.00 | 60 | 1015.4 |
| 20260504213834 | 81 | 166 | 4.0 | 5.0 | 0.00 | 0.00 | 0.00 | 60 | 1015.2 |
| 20260504213330 | 82 | 167 | 5.0 | 7.0 | 0.00 | 0.00 | 0.00 | 59 | 1015.4 |
| 20260504212828 | 83 | 148 | 2.0 | 3.0 | 0.00 | 0.00 | 0.00 | 57 | 1015.3 |
| 20260504212323 | 82 | 169 | 1.0 | 2.0 | 0.00 | 0.00 | 0.00 | 61 | 1015.3 |
| 20260504211822 | 80 | 181 | 1.0 | 1.0 | 0.00 | 0.00 | 0.00 | 61 | 1015.7 |
| 20260504211317 | 80 | 128 | 6.0 | 7.0 | 0.00 | 0.00 | 0.00 | 59 | 1015.7 |
| 20260504210815 | 81 | 185 | 1.0 | 2.0 | 0.00 | 0.00 | 0.00 | 58 | 1015.9 |
| 20260504210312 | 82 | 168 | 4.0 | 5.0 | 0.00 | 0.00 | 0.00 | 57 | 1015.9 |
| 20260504205809 | 83 | 207 | 1.0 | 1.0 | 0.00 | 0.00 | 0.00 | 57 | 1016.0 |
| 20260504205307 | 82 | 169 | 1.0 | 1.0 | 0.00 | 0.00 | 0.00 | 58 | 1016.0 |
| 20260504204805 | 81 | 164 | 3.0 | 3.0 | 0.00 | 0.00 | 0.00 | 58 | 1016.2 |
| 20260504204303 | 81 | 187 | 2.0 | 2.0 | 0.00 | 0.00 | 0.00 | 58 | 1016.1 |
| 20260504203802 | 83 | 139 | 5.0 | 7.0 | 0.00 | 0.00 | 0.00 | 55 | 1016.3 |
| 20260504203258 | 84 | 151 | 2.0 | 2.0 | 0.00 | 0.00 | 0.00 | 57 | 1016.2 |
| 20260504202753 | 83 | 264 | 3.0 | 5.0 | 0.00 | 0.00 | 0.00 | 54 | 1016.2 |
| 20260504202251 | 83 | 231 | 1.0 | 2.0 | 0.00 | 0.00 | 0.00 | 55 | 1016.5 |
| 20260504201747 | 83 | 134 | 1.0 | 2.0 | 0.00 | 0.00 | 0.00 | 54 | 1016.8 |
| 20260504201244 | 83 | 181 | 1.0 | 1.0 | 0.00 | 0.00 | 0.00 | 54 | 1017.0 |
| 20260504200743 | 82 | 159 | 4.0 | 6.0 | 0.00 | 0.00 | 0.00 | 56 | 1016.9 |
| 20260504200238 | 83 | 182 | 5.0 | 8.0 | 0.00 | 0.00 | 0.00 | 53 | 1016.8 |
| 20260504195735 | 83 | 108 | 3.0 | 3.0 | 0.00 | 0.00 | 0.00 | 55 | 1016.9 |
| 20260504195231 | 82 | 181 | 2.0 | 2.0 | 0.00 | 0.00 | 0.00 | 57 | 1017.1 |
| 20260504194728 | 82 | 115 | 3.0 | 5.0 | 0.00 | 0.00 | 0.00 | 55 | 1017.1 |
| 20260504194224 | 82 | 132 | 0.0 | 0.0 | 0.00 | 0.00 | 0.00 | 54 | 1017.3 |
| 20260504193720 | 82 | 163 | 3.0 | 5.0 | 0.00 | 0.00 | 0.00 | 53 | 1017.3 |
| 20260504193218 | 82 | 84 | 6.0 | 9.0 | 0.00 | 0.00 | 0.00 | 53 | 1017.2 |
| 20260504192716 | 83 | 218 | 7.0 | 10.0 | 0.00 | 0.00 | 0.00 | 51 | 1017.3 |
| 20260504192214 | 82 | 187 | 4.0 | 6.0 | 0.00 | 0.00 | 0.00 | 55 | 1017.3 |
| 20260504191712 | 81 | 165 | 3.0 | 5.0 | 0.00 | 0.00 | 0.00 | 54 | 1017.5 |
| 20260504191209 | 81 | 168 | 2.0 | 3.0 | 0.00 | 0.00 | 0.00 | 55 | 1017.6 |
| 20260504190704 | 81 | 149 | 3.0 | 3.0 | 0.00 | 0.00 | 0.00 | 54 | 1017.5 |
| 20260504190201 | 80 | 166 | 3.0 | 3.0 | 0.00 | 0.00 | 0.00 | 57 | 1017.5 |
| 20260504185657 | 81 | 156 | 7.0 | 8.0 | 0.00 | 0.00 | 0.00 | 53 | 1017.7 |
| 20260504185154 | 82 | 296 | 3.0 | 3.0 | 0.00 | 0.00 | 0.00 | 55 | 1017.7 |
| 20260504184650 | 82 | 143 | 3.0 | 5.0 | 0.00 | 0.00 | 0.00 | 54 | 1017.9 |
| 20260504184145 | 81 | 200 | 1.0 | 1.0 | 0.00 | 0.00 | 0.00 | 54 | 1018.0 |
| 20260504183642 | 81 | 180 | 3.0 | 3.0 | 0.00 | 0.00 | 0.00 | 53 | 1018.0 |
| 20260504183140 | 81 | 294 | 4.0 | 5.0 | 0.00 | 0.00 | 0.00 | 55 | 1018.0 |
| 20260504182637 | 81 | 213 | 3.0 | 5.0 | 0.00 | 0.00 | 0.00 | 55 | 1018.1 |
| 20260504182134 | 80 | 152 | 8.0 | 9.0 | 0.00 | 0.00 | 0.00 | 53 | 1018.1 |
| 20260504181632 | 80 | 211 | 3.0 | 3.0 | 0.00 | 0.00 | 0.00 | 56 | 1018.4 |
| 20260504181129 | 79 | 211 | 5.0 | 7.0 | 0.00 | 0.00 | 0.00 | 52 | 1018.3 |
| 20260504180629 | 80 | 140 | 4.0 | 6.0 | 0.00 | 0.00 | 0.00 | 52 | 1018.2 |
| 20260504180127 | 80 | 113 | 6.0 | 7.0 | 0.00 | 0.00 | 0.00 | 55 | 1018.3 |
| 20260504175623 | 81 | 180 | 3.0 | 3.0 | 0.00 | 0.00 | 0.00 | 55 | 1018.2 |
| 20260504175120 | 81 | 143 | 3.0 | 5.0 | 0.00 | 0.00 | 0.00 | 53 | 1018.3 |
| 20260504174619 | 79 | 130 | 5.0 | 7.0 | 0.00 | 0.00 | 0.00 | 56 | 1018.5 |
| 20260504174114 | 80 | 177 | 6.0 | 9.0 | 0.00 | 0.00 | 0.00 | 56 | 1018.7 |
| 20260504173611 | 80 | 165 | 2.0 | 2.0 | 0.00 | 0.00 | 0.00 | 56 | 1018.9 |
| 20260504173109 | 81 | 152 | 3.0 | 3.0 | 0.00 | 0.00 | 0.00 | 56 | 1018.8 |
| 20260504172605 | 80 | 139 | 1.0 | 1.0 | 0.00 | 0.00 | 0.00 | 55 | 1018.8 |
| 20260504172102 | 79 | 209 | 2.0 | 3.0 | 0.00 | 0.00 | 0.00 | 56 | 1018.9 |
| 20260504171558 | 78 | 130 | 2.0 | 3.0 | 0.00 | 0.00 | 0.00 | 57 | 1018.8 |
| 20260504171056 | 79 | 145 | 5.0 | 8.0 | 0.00 | 0.00 | 0.00 | 55 | 1019.0 |
| 20260504170551 | 79 | 175 | 0.0 | 0.0 | 0.00 | 0.00 | 0.00 | 56 | 1019.1 |